TimePST,TemperatureF,Dew PointF,Humidity,Sea Level PressureIn,VisibilityMPH,Wind Direction,Wind SpeedMPH,Gust SpeedMPH,PrecipitationIn,Events,Conditions,WindDirDegrees,DateUTC
12:03 AM,42.8,41.0,93,30.06,2.5,NE,2.3,-,N/A,,Clear,40,2013-11-27 08:03:00
12:58 AM,44.1,41.5,91,30.28,10.0,East,2.3,-,N/A,,Partly Cloudy,100,2013-11-27 08:58:00
1:58 AM,42.8,42.6,99,30.28,10.0,NNW,3.5,-,N/A,,Overcast,330,2013-11-27 09:58:00
2:58 AM,41.5,40.8,97,30.26,10.0,Calm,Calm,-,N/A,,Partly Cloudy,0,2013-11-27 10:58:00
3:58 AM,40.6,40.1,98,30.25,10.0,West,2.3,-,N/A,,Clear,270,2013-11-27 11:58:00
4:58 AM,42.8,41.0,93,30.23,10.0,East,2.3,-,N/A,,Overcast,80,2013-11-27 12:58:00
5:58 AM,42.8,41.0,93,30.22,10.0,NNE,2.3,-,N/A,,Overcast,30,2013-11-27 13:58:00
6:58 AM,40.5,40.3,99,30.22,7.0,NNW,3.5,-,N/A,,Mostly Cloudy,330,2013-11-27 14:58:00
7:53 AM,41.0,41.0,100,29.99,-9999.0,North,4.6,-,N/A,,Clear,350,2013-11-27 15:53:00
7:58 AM,41.0,41.0,100,30.22,5.0,North,2.3,-,N/A,,Clear,10,2013-11-27 15:58:00
8:58 AM,48.0,45.0,89,30.22,10.0,NNW,1.2,-,N/A,,Scattered Clouds,340,2013-11-27 16:58:00
9:58 AM,50.2,44.1,79,30.22,10.0,WNW,5.8,-,N/A,,Scattered Clouds,290,2013-11-27 17:58:00
10:58 AM,52.0,42.6,70,30.20,9.0,NNW,5.8,-,N/A,,Mostly Cloudy,340,2013-11-27 18:58:00
11:58 AM,54.7,43.2,65,30.18,10.0,NW,6.9,-,N/A,,Mostly Cloudy,320,2013-11-27 19:58:00
12:58 PM,59.5,42.4,53,30.14,10.0,NNW,4.6,-,N/A,,Scattered Clouds,340,2013-11-27 20:58:00
1:58 PM,60.3,39.7,47,30.12,10.0,WNW,5.8,-,N/A,,Clear,300,2013-11-27 21:58:00
2:58 PM,62.2,40.5,45,30.10,10.0,NNW,6.9,-,N/A,,Scattered Clouds,330,2013-11-27 22:58:00
3:58 PM,59.2,42.3,53,30.10,10.0,NW,2.3,-,N/A,,Clear,320,2013-11-27 23:58:00
4:58 PM,52.7,41.9,67,30.10,10.0,WNW,5.8,-,N/A,,Scattered Clouds,300,2013-11-28 00:58:00
5:03 PM,51.8,41.0,67,29.87,10.0,WNW,4.6,-,N/A,,Partly Cloudy,300,2013-11-28 01:03:00
5:48 PM,51.8,42.8,71,29.87,1.5,North,3.5,-,N/A,,Haze,350,2013-11-28 01:48:00
5:58 PM,52.5,42.3,68,30.10,2.0,NNW,5.8,-,N/A,,Haze,330,2013-11-28 01:58:00
6:03 PM,51.8,41.0,67,29.87,3.0,NNW,5.8,-,N/A,,Haze,330,2013-11-28 02:03:00
6:43 PM,48.2,41.0,76,29.87,2.5,North,2.3,-,N/A,,Haze,360,2013-11-28 02:43:00
6:53 PM,50.0,42.8,76,29.87,1.0,North,3.5,-,N/A,,Haze,360,2013-11-28 02:53:00
6:58 PM,50.0,41.0,71,30.10,1.0,North,4.6,-,N/A,,Haze,350,2013-11-28 02:58:00
7:03 PM,50.0,42.8,76,29.87,2.0,North,4.6,-,N/A,,Haze,350,2013-11-28 03:03:00
7:08 PM,50.0,41.0,71,29.86,3.0,North,2.3,-,N/A,,Haze,350,2013-11-28 03:08:00
7:23 PM,48.2,42.8,82,29.87,2.0,NNE,5.8,-,N/A,,Haze,20,2013-11-28 03:23:00
7:38 PM,46.4,41.0,81,29.87,3.0,NW,2.3,-,N/A,,Haze,320,2013-11-28 03:38:00
7:58 PM,47.3,42.6,84,30.10,4.0,NW,2.3,-,N/A,,Haze,310,2013-11-28 03:58:00
8:13 PM,48.2,42.8,82,29.87,6.0,NW,4.6,-,N/A,,Haze,320,2013-11-28 04:13:00
8:28 PM,46.4,42.8,87,29.87,4.0,North,2.3,-,N/A,,Clear,350,2013-11-28 04:28:00
8:43 PM,46.4,42.8,87,29.87,2.5,NE,4.6,-,N/A,,Haze,50,2013-11-28 04:43:00
8:48 PM,48.2,42.8,82,29.88,1.8,NE,2.3,-,N/A,,Haze,50,2013-11-28 04:48:00
8:53 PM,48.2,42.8,82,29.88,2.0,NNE,2.3,-,N/A,,Haze,20,2013-11-28 04:53:00
8:58 PM,47.7,42.4,82,30.11,5.0,NNE,2.3,-,N/A,,Haze,20,2013-11-28 04:58:00
9:13 PM,46.4,41.0,81,29.87,2.0,NE,4.6,-,N/A,,Haze,40,2013-11-28 05:13:00
9:18 PM,48.2,42.8,82,29.87,1.2,NE,3.5,-,N/A,,Haze,50,2013-11-28 05:18:00
9:28 PM,46.4,42.8,87,29.88,2.0,ENE,4.6,-,N/A,,Haze,70,2013-11-28 05:28:00
9:38 PM,46.4,41.0,81,29.88,3.0,East,2.3,-,N/A,,Haze,90,2013-11-28 05:38:00
9:58 PM,46.4,41.2,82,30.11,6.0,Calm,Calm,-,N/A,,Haze,0,2013-11-28 05:58:00
10:13 PM,46.4,41.0,81,29.88,4.0,NE,3.5,-,N/A,,Haze,40,2013-11-28 06:13:00
10:28 PM,46.4,41.0,81,29.88,6.0,North,3.5,-,N/A,,Haze,350,2013-11-28 06:28:00
10:58 PM,45.9,41.0,83,30.11,3.0,Calm,Calm,-,N/A,,Haze,0,2013-11-28 06:58:00
11:13 PM,46.4,41.0,81,29.89,7.0,NNW,2.3,-,N/A,,Clear,340,2013-11-28 07:13:00
11:28 PM,46.4,42.8,87,29.88,7.0,NNW,8.1,-,N/A,,Clear,340,2013-11-28 07:28:00
11:43 PM,46.4,42.8,87,29.89,5.0,North,5.8,-,N/A,,Clear,350,2013-11-28 07:43:00
11:58 PM,45.0,41.5,88,30.12,5.0,North,3.5,-,N/A,,Clear,360,2013-11-28 07:58:00